Wind_Speed
29 32 34 36 37 38 38 38 38 38 39 43 47 51 54 59 63 66 69 70 70 71 73 73 71 68 67 67 66 65 65 64 63 64 67 70 74 77 76 69 53 34 21 17
29 32 35 39 41 41 41 41 40 40 40 43 46 51 54 59 63 66 68 68 69 71 73 72 70 67 66 66 66 65 64 64 64 65 67 70 74 77 76 68 52 33 18 11
29 33 37 42 46 46 44 44 44 43 43 45 47 51 55 59 62 65 67 68 68 70 72 71 69 66 65 65 64 64 63 64 64 65 67 70 73 76 75 69 55 37 20 9
30 35 40 43 47 49 47 47 47 46 46 47 49 52 55 58 62 65 67 67 67 69 71 70 68 66 64 64 63 62 62 63 64 64 66 69 72 74 74 71 61 44 28 16
32 36 39 44 48 51 51 50 52 51 50 50 51 52 55 57 62 65 67 67 67 68 69 69 67 65 63 62 62 61 61 62 63 64 64 67 70 72 73 72 66 53 36 24
31 36 41 44 48 51 53 54 56 55 54 52 52 52 54 57 61 65 67 66 66 67 68 68 66 63 61 61 60 60 60 61 62 62 63 65 68 71 72 72 69 61 47 32
30 34 38 43 47 51 52 55 58 58 56 54 52 53 54 57 61 65 67 66 65 66 67 67 65 62 60 60 59 59 59 60 60 60 62 64 66 69 71 71 70 66 58 45
32 37 40 44 47 50 52 55 57 59 58 56 55 54 55 57 60 64 66 66 65 65 66 66 64 62 59 58 58 58 58 58 58 59 60 61 63 65 67 69 68 67 64 56
31 34 38 42 46 49 52 55 57 60 61 59 56 55 55 57 60 64 66 65 64 64 64 64 63 61 58 57 56 56 56 56 56 57 58 59 61 62 64 65 66 66 65 62
31 34 38 43 46 49 52 55 58 61 62 61 58 56 55 56 60 63 65 65 63 62 63 63 62 60 57 55 54 54 53 53 53 54 56 57 59 60 61 62 64 65 65 63
32 36 38 42 46 49 53 55 58 61 63 62 59 56 55 56 59 62 64 64 62 61 61 61 61 59 56 53 53 52 52 51 51 51 53 56 58 59 59 60 61 62 63 63
36 39 42 44 47 50 53 56 58 61 63 63 60 57 55 55 58 61 63 63 61 60 60 60 59 58 55 52 51 50 50 49 49 49 50 53 55 57 58 58 58 59 61 62
39 40 42 45 48 50 53 56 58 61 62 63 61 58 55 55 57 60 62 62 61 59 58 59 58 56 54 51 49 49 48 48 47 47 48 50 52 54 55 56 57 56 57 58
41 43 44 46 48 50 53 56 58 60 62 62 61 58 55 54 56 59 61 62 61 59 57 57 57 55 53 51 48 47 47 46 46 46 47 48 49 51 52 53 54 54 54 54
42 44 46 47 49 50 53 56 58 60 61 61 61 58 55 54 55 58 60 62 60 58 56 55 55 54 52 50 48 46 45 45 45 45 45 46 47 49 50 51 52 52 52 52
42 46 48 49 50 51 53 56 58 59 61 61 60 58 56 54 54 57 60 61 60 57 55 54 53 53 51 50 47 45 44 43 43 44 44 45 45 46 48 49 50 50 50 50
44 48 49 50 51 51 53 55 57 59 60 60 59 57 55 54 54 56 59 60 59 57 55 53 52 51 50 48 47 45 43 42 42 42 43 44 44 45 46 47 48 49 49 50
46 50 52 52 52 52 53 55 56 58 59 60 58 56 55 53 53 55 57 59 58 56 54 52 50 49 49 47 46 44 43 42 41 41 41 42 43 44 45 46 46 47 47 48
48 52 53 52 52 52 53 54 56 58 59 59 57 55 54 52 52 54 56 57 57 55 54 51 49 48 48 46 45 44 43 42 40 40 40 41 42 43 43 44 45 45 45 45
49 53 53 52 52 52 53 54 56 57 58 59 56 54 52 51 51 52 55 56 56 55 54 51 49 47 47 46 44 43 43 42 40 40 39 39 40 41 41 42 43 44 44 44
49 52 52 52 52 53 53 54 56 57 58 58 55 52 51 50 50 51 53 54 54 54 53 51 48 47 46 45 44 43 42 42 41 40 39 38 38 39 39 40 41 42 43 42
49 51 51 52 53 53 53 55 56 57 58 57 54 51 50 49 48 49 52 53 53 53 52 50 48 46 45 45 44 43 42 42 41 41 40 39 37 37 37 38 39 40 41 41
49 50 52 53 53 53 54 56 56 57 58 57 54 50 48 47 47 48 50 51 51 51 51 49 47 45 45 44 44 43 41 41 41 42 41 40 38 37 36 36 37 38 39 39
51 52 53 53 53 54 55 56 56 57 57 56 52 49 47 46 46 47 49 49 49 50 49 48 46 45 44 43 43 42 41 41 41 42 42 41 40 38 36 35 35 35 36 37
53 53 54 54 54 55 56 55 55 56 56 55 51 47 45 45 45 46 47 48 48 48 48 47 45 44 43 43 43 42 41 40 41 41 42 42 41 39 37 35 33 33 33 34
53 53 54 54 55 55 55 54 54 55 55 53 49 46 44 44 45 46 46 46 47 47 46 46 44 43 43 42 42 42 41 40 40 41 41 42 41 40 38 36 33 31 31 32
53 53 54 54 54 54 53 53 53 54 54 51 47 44 43 44 44 45 45 45 45 45 45 44 43 42 42 42 41 41 41 40 39 40 41 41 41 40 39 36 32 30 29 30
Wind_Direction
19 15 12 8 4 359 353 349 344 342 340 341 343 345 348 348 349 349 348 347 346 345 346 346 346 346 345 346 348 349 350 351 352 352 353 355 357 357 358 359 360 7 30 62
19 15 13 11 9 4 359 355 352 348 345 344 345 347 349 350 350 349 348 347 346 346 347 348 348 347 347 348 350 352 353 354 355 356 357 359 1 2 3 4 5 8 23 62
16 13 10 11 9 7 3 358 356 351 348 346 348 349 350 350 350 349 349 348 347 347 348 349 349 349 349 350 352 354 356 357 358 359 360 2 4 6 7 8 9 9 13 29
10 9 10 7 7 7 5 1 358 354 351 349 349 349 350 350 350 350 350 349 348 348 349 350 350 350 350 352 354 356 357 359 1 1 2 5 7 9 11 13 14 14 14 13
4 5 4 4 4 4 3 3 0 357 353 351 349 349 349 349 350 351 350 349 349 349 350 352 352 352 351 353 355 357 358 1 3 3 5 7 9 11 14 16 17 18 18 17
359 0 360 0 1 1 0 2 360 357 354 352 349 348 348 349 350 351 351 350 349 350 351 353 353 353 352 354 356 358 360 3 5 5 7 9 11 13 16 18 20 22 22 20
353 356 357 357 358 357 358 358 358 356 354 351 349 348 348 349 350 351 351 351 350 350 352 353 354 354 353 354 357 359 1 5 7 7 9 11 13 15 17 19 22 23 24 24
347 351 355 353 354 355 354 355 355 355 353 351 349 348 348 349 350 350 351 351 351 351 352 354 355 355 354 355 357 360 3 6 8 10 11 13 15 16 18 20 23 25 26 27
341 345 347 349 351 351 351 352 352 353 353 351 349 348 348 349 349 350 351 351 352 352 353 354 356 356 355 356 358 1 4 6 9 11 13 15 16 17 19 20 23 25 27 28
332 339 344 345 347 348 349 349 350 351 352 351 349 348 348 348 349 350 351 351 352 352 353 355 356 357 356 357 359 2 4 7 9 12 14 16 16 17 19 20 22 25 27 29
327 333 338 341 343 345 347 347 348 349 350 350 349 348 347 347 348 350 351 351 352 352 353 355 357 357 357 357 359 2 5 7 10 12 13 15 17 18 18 19 21 24 27 29
323 329 334 337 339 341 343 345 345 347 348 348 348 347 347 347 348 350 351 352 352 352 353 355 357 358 358 357 359 2 5 8 10 12 14 15 16 17 18 19 21 22 25 27
317 323 328 332 335 337 340 342 343 344 346 347 348 347 346 346 347 349 351 352 352 352 353 355 356 358 358 358 359 2 5 8 10 12 14 15 17 17 17 18 20 22 24 26
311 317 322 327 331 333 336 338 340 342 344 345 346 346 346 346 347 348 350 352 352 352 353 354 356 357 359 358 359 1 5 8 10 12 13 15 16 17 18 18 19 21 22 25
306 311 317 322 326 329 332 335 337 340 342 344 345 345 345 345 346 347 350 351 352 352 352 353 355 357 359 359 359 0 3 7 10 11 12 14 15 16 17 18 19 20 22 23
300 306 311 316 321 325 329 332 335 338 340 342 344 345 345 344 345 346 349 350 351 351 352 352 354 356 358 359 359 359 1 5 8 10 11 12 14 15 16 17 18 20 21 22
295 300 305 311 316 321 325 328 332 335 338 340 342 343 343 343 344 345 347 349 350 350 351 351 353 354 357 359 359 358 360 3 6 8 10 11 13 14 15 16 16 18 19 20
290 295 300 306 312 317 321 325 329 333 336 339 341 341 342 342 342 344 346 348 349 349 350 350 351 353 355 357 358 358 358 0 3 5 7 8 10 12 14 14 15 16 17 18
285 289 295 302 307 312 317 321 326 330 334 337 339 339 340 341 341 342 345 346 347 348 349 349 350 352 354 355 357 358 358 359 360 1 3 5 7 9 10 11 12 13 14 15
279 285 292 298 304 309 314 318 324 328 332 335 336 337 338 339 340 341 343 345 346 347 348 348 349 351 353 354 355 357 358 358 358 357 358 -0 2 4 6 8 9 10 11 12
278 284 290 296 302 306 311 316 321 326 330 332 334 334 336 337 338 339 342 343 345 346 346 347 348 349 351 353 353 355 357 357 357 355 355 355 356 358 360 2 4 6 7 8
278 283 289 295 299 304 308 314 319 324 327 330 331 331 333 335 336 338 340 342 344 345 345 346 347 348 350 352 352 353 355 356 356 355 354 352 352 352 354 356 358 1 3 5
277 283 288 292 297 301 306 312 317 321 324 327 328 328 330 333 334 336 338 341 343 344 344 345 347 347 348 350 351 352 352 354 355 354 353 352 350 349 350 351 354 356 358 1
276 281 285 289 294 298 304 310 314 318 322 324 325 325 327 330 332 334 337 339 342 343 344 345 346 347 347 348 350 350 351 352 353 353 352 352 351 349 348 348 350 352 355 357
273 277 281 286 291 296 302 307 312 316 319 322 322 322 324 327 330 332 335 338 340 341 343 344 345 346 347 347 348 349 350 350 351 352 351 351 350 349 348 347 347 349 351 354
270 274 278 283 288 294 299 304 309 313 317 319 319 319 321 325 328 330 333 336 338 340 341 343 344 346 346 346 347 348 349 349 350 350 350 350 350 349 348 348 347 348 350 353
268 272 276 281 286 291 296 301 306 310 314 316 316 316 319 322 325 328 331 334 336 338 340 342 343 345 346 346 346 347 347 348 348 349 350 350 349 349 348 347 347 348 349 352
Height
5866 5860 5854 5848 5841 5833 5824 5816 5808 5800 5791 5782 5772 5761 5749 5737 5723 5709 5695 5679 5663 5648 5631 5613 5596 5580 5564 5550 5534 5518 5502 5485 5470 5453 5437 5419 5399 5377 5352 5329 5309 5296 5288 5284
5866 5860 5853 5847 5839 5830 5821 5811 5803 5795 5786 5777 5767 5756 5744 5731 5718 5704 5690 5675 5660 5644 5627 5610 5593 5577 5562 5547 5531 5515 5499 5483 5467 5451 5435 5417 5398 5376 5352 5331 5312 5300 5292 5288
5864 5858 5851 5843 5835 5827 5818 5808 5799 5790 5782 5771 5761 5750 5739 5726 5713 5700 5686 5671 5656 5640 5623 5606 5590 5575 5560 5545 5529 5514 5498 5483 5467 5450 5434 5417 5398 5377 5356 5335 5317 5304 5296 5291
5860 5854 5846 5842 5831 5823 5815 5805 5795 5786 5776 5766 5756 5745 5734 5722 5710 5696 5682 5667 5652 5636 5619 5603 5587 5572 5557 5542 5528 5513 5498 5483 5467 5451 5436 5419 5401 5382 5362 5341 5323 5309 5300 5295
5854 5849 5843 5836 5827 5818 5810 5803 5792 5782 5772 5761 5751 5740 5729 5718 5706 5692 5678 5664 5648 5633 5617 5601 5585 5570 5556 5542 5528 5514 5500 5485 5469 5454 5438 5422 5406 5388 5369 5350 5332 5316 5306 5299
5851 5844 5838 5834 5825 5815 5807 5798 5789 5778 5768 5757 5747 5737 5727 5714 5702 5689 5675 5660 5645 5630 5615 5599 5583 5569 5555 5542 5528 5515 5501 5486 5470 5456 5441 5426 5410 5393 5376 5358 5341 5325 5313 5304
5848 5843 5837 5830 5821 5812 5804 5797 5786 5775 5765 5754 5744 5733 5723 5710 5698 5686 5672 5658 5643 5628 5613 5597 5582 5568 5555 5542 5528 5515 5501 5487 5473 5460 5445 5430 5415 5400 5383 5367 5350 5335 5322 5311
5843 5837 5833 5825 5817 5810 5803 5792 5782 5772 5761 5750 5739 5728 5717 5706 5695 5682 5669 5655 5640 5626 5611 5596 5581 5567 5555 5542 5529 5515 5502 5489 5477 5464 5450 5436 5422 5408 5394 5379 5363 5348 5334 5321
5841 5837 5830 5822 5815 5807 5799 5789 5779 5769 5758 5746 5735 5725 5714 5703 5691 5679 5666 5652 5638 5624 5610 5596 5581 5568 5555 5543 5530 5517 5504 5492 5480 5468 5456 5443 5430 5417 5404 5390 5375 5360 5346 5333
5836 5832 5826 5818 5811 5803 5795 5786 5776 5766 5755 5743 5732 5721 5710 5699 5688 5676 5663 5649 5636 5622 5609 5595 5581 5568 5555 5543 5531 5519 5507 5496 5484 5473 5461 5449 5437 5424 5412 5400 5386 5372 5358 5345
5831 5827 5822 5815 5807 5799 5791 5782 5772 5762 5751 5740 5728 5717 5707 5696 5685 5673 5660 5647 5634 5621 5607 5594 5581 5568 5556 5544 5533 5521 5510 5499 5488 5477 5465 5454 5443 5431 5418 5406 5394 5382 5369 5356
5824 5820 5814 5809 5802 5795 5786 5778 5768 5758 5747 5736 5724 5713 5703 5692 5682 5670 5658 5645 5632 5619 5607 5594 5581 5568 5556 5545 5535 5524 5513 5502 5492 5482 5470 5459 5447 5435 5424 5413 5402 5390 5378 5366
5818 5814 5809 5803 5797 5789 5782 5773 5764 5754 5743 5732 5721 5710 5699 5689 5678 5667 5655 5643 5630 5618 5606 5593 5581 5568 5557 5546 5536 5526 5516 5505 5495 5485 5475 5465 5454 5443 5432 5421 5409 5399 5388 5377
5811 5806 5802 5797 5791 5784 5777 5769 5760 5750 5739 5728 5717 5706 5695 5685 5675 5664 5653 5641 5628 5616 5605 5593 5581 5569 5558 5547 5537 5527 5517 5507 5498 5489 5479 5469 5458 5448 5439 5428 5418 5408 5397 5387
5804 5799 5795 5790 5785 5779 5771 5763 5754 5745 5735 5724 5713 5702 5692 5682 5672 5662 5650 5638 5626 5615 5603 5592 5580 5569 5558 5548 5538 5528 5519 5509 5500 5491 5482 5473 5463 5453 5444 5435 5425 5415 5405 5395
5798 5792 5787 5783 5778 5772 5765 5758 5749 5740 5730 5719 5708 5698 5688 5678 5668 5658 5647 5636 5624 5613 5602 5591 5580 5569 5559 5548 5539 5530 5521 5512 5503 5494 5485 5477 5467 5458 5449 5440 5431 5422 5413 5404
5789 5783 5779 5776 5771 5766 5759 5752 5744 5735 5725 5714 5704 5693 5684 5674 5664 5655 5645 5634 5622 5611 5600 5589 5579 5569 5559 5549 5540 5531 5522 5513 5504 5496 5488 5480 5472 5463 5454 5445 5436 5427 5419 5410
5780 5775 5771 5768 5764 5758 5752 5745 5738 5729 5719 5709 5699 5689 5679 5670 5661 5651 5642 5631 5620 5609 5598 5588 5578 5569 5559 5549 5540 5532 5523 5514 5506 5498 5491 5483 5475 5466 5457 5449 5441 5432 5424 5415
5771 5766 5763 5760 5756 5751 5745 5738 5731 5722 5713 5703 5693 5684 5674 5665 5656 5647 5638 5627 5617 5607 5596 5586 5577 5568 5558 5549 5540 5532 5523 5515 5507 5499 5492 5484 5477 5469 5461 5453 5445 5437 5429 5421
5761 5756 5754 5751 5747 5743 5737 5730 5723 5715 5706 5697 5688 5678 5669 5661 5652 5643 5634 5624 5614 5604 5594 5585 5576 5567 5558 5549 5540 5532 5523 5515 5507 5500 5493 5486 5479 5472 5464 5457 5449 5441 5433 5425
5750 5747 5744 5742 5738 5733 5728 5722 5715 5707 5698 5690 5681 5672 5664 5655 5647 5638 5630 5620 5611 5601 5592 5583 5574 5565 5557 5548 5540 5531 5523 5515 5508 5500 5493 5486 5479 5473 5466 5459 5451 5444 5436 5428
5738 5736 5734 5731 5727 5723 5718 5712 5706 5698 5690 5683 5674 5666 5658 5650 5642 5633 5625 5616 5607 5598 5589 5580 5572 5563 5555 5547 5539 5531 5523 5515 5508 5500 5493 5486 5479 5473 5466 5460 5453 5445 5438 5430
5726 5724 5722 5720 5716 5712 5708 5703 5697 5690 5682 5675 5667 5659 5651 5644 5636 5628 5620 5612 5603 5594 5586 5577 5569 5561 5553 5545 5537 5529 5522 5515 5507 5500 5493 5485 5479 5472 5465 5459 5452 5446 5439 5432
5713 5712 5710 5708 5705 5701 5697 5693 5687 5681 5674 5667 5659 5652 5645 5637 5630 5623 5615 5606 5598 5590 5582 5574 5566 5558 5551 5543 5535 5528 5521 5513 5506 5499 5492 5484 5477 5470 5464 5457 5451 5445 5439 5432
5700 5699 5698 5695 5693 5690 5686 5682 5677 5671 5665 5658 5651 5644 5637 5631 5624 5617 5609 5601 5593 5586 5578 5570 5563 5555 5548 5540 5533 5526 5518 5511 5505 5497 5490 5483 5476 5469 5462 5456 5450 5444 5438 5432
5686 5686 5684 5683 5681 5678 5675 5671 5667 5662 5655 5649 5642 5636 5630 5623 5617 5610 5603 5595 5588 5581 5574 5566 5559 5552 5545 5538 5531 5523 5516 5509 5503 5496 5489 5481 5474 5467 5460 5454 5448 5442 5436 5431
5672 5671 5670 5669 5668 5666 5663 5660 5656 5652 5646 5640 5634 5627 5622 5616 5610 5603 5597 5590 5583 5576 5569 5562 5555 5548 5542 5535 5528 5521 5514 5507 5500 5494 5487 5479 5472 5465 5458 5452 5446 5440 5435 5430